Regional Weather Roundup
Issued by NWS Northern Indiana

Home | Current Version | Previous Version | Text Only | Print | Product List | Glossary On
Versions: 1 2 3 4 5 6 7 8 9 10 11 12 13 14 15 16 17 18 19 20 21 22 23 24 25 26 27 28 29 30 31 32 33 34 35 36 37 38 39 40 41 42 43 44 45 46 47 48 49 50
000
ASUS43 KIWX 302110
RWRIWX

KIWX WEATHER ROUNDUP
NATIONAL WEATHER SERVICE NORTHERN INDIANA
500 PM EDT SAT MAY 30 2015

NOTE: "FAIR" INDICATES FEW OR NO CLOUDS BELOW 12,000 FEET WITH NO
SIGNIFICANT WEATHER AND/OR OBSTRUCTIONS TO VISIBILITY.

* THESE STATIONS ARE NOT UNDER NWS QUALITY CONTROL. THEY ALSO MAY NOT
  REPORT WEATHER SUCH AS PRECIPITATION OR FOG.

INZ001>027-302200-
NORTHERN INDIANA

CITY           SKY/WX    TMP DP  RH WIND       PRES   REMARKS
GARY*          DRIZZLE   48  48 100 N20       30.06R
VALPARAISO     RAIN      50  48  93 N12       30.00R FOG
MICHIGAN CITY* MIX PCPN  46  46 100 N8        30.01F
LAPORTE*       HVY RAIN  55  55 100 N9        29.99S
KNOX*          CLOUDY    55  55 100 N10       29.97R
SOUTH BEND     LGT RAIN  66  64  93 N14       29.96S
ELKHART*       CLOUDY    72  66  83 N9G16     29.95F
GOSHEN         RAIN      67  65  93 SW6       29.94S VSB 1
MONTICELLO*    LGT RAIN  67  67 100 SE3       29.93R
LOGANSPORT*    LGT RAIN  68  64  88 SE6       29.94R
ROCHESTER*     CLOUDY    72  68  88 S10       29.93F
WARSAW*        CLOUDY    68  66  94 CALM      29.93F
ANGOLA*        PTSUNNY   73  70  88 S6        29.93F
FORT WAYNE     CLOUDY    70  67  90 SW5       29.94F
HUNTINGTON*    CLOUDY    72  68  89 SW3       29.94F
PERU/GRISSOM   MOSUNNY   71  67  87 S3        29.93S
MARION*        CLOUDY    74  68  80 CALM      29.95F

$$
INZ028>050-302200-
CENTRAL INDIANA

CITY           SKY/WX    TMP DP  RH WIND       PRES   REMARKS
LAFAYETTE      RAIN      67  66  97 CALM      29.94S FOG
KOKOMO*        CLOUDY    73  66  78 E5        29.94S
MUNCIE*        LGT RAIN  72  67  84 E5        29.95F
INDIANAPOLIS   PTSUNNY   80  65  59 SW15      29.91S

$$
MIZ043>046-050>051-056>058-064>065-071>073-077>080-302200-
SOUTHWEST LOWER MICHIGAN

CITY           SKY/WX    TMP DP  RH WIND       PRES   REMARKS
BATTLE CREEK   CLOUDY    70  63  78 N10       29.98S
BENTON HARBOR  CLOUDY    50  50 100 VRB3      29.99F
COLDWATER*     PTSUNNY   73  65  76 N10       29.94F
HILLSDALE*     LGT RAIN  69  69  98 N8        29.97R
HOLLAND        LGT RAIN  56  54  93 N10G22    30.04R
GRAND RAPIDS   CLOUDY    57  54  89 N20G26    30.04R
KALAMAZOO      CLOUDY    71  64  78 N10       29.97F
STURGIS*       CLOUDY    73  66  78 NW10      29.94F
THREE RIVERS*  CLOUDY    72  65  80 NW13G18   29.95F

$$
OHZ001>008-015>018-024>025-302200-
NORTHWEST OHIO

CITY           SKY/WX    TMP DP  RH WIND       PRES   REMARKS
WAUSEON*       FAIR      79  66  65 SW8       29.95S
DEFIANCE       CLOUDY    77  67  71 CALM      29.94F
FINDLAY        MOSUNNY   79  67  66 E6        29.94F
TOLEDO EXPRESS MOSUNNY   78  66  66 SW5       29.94S
TOLEDO METCALF PTSUNNY   82  66  58 W8        29.95F
LIMA           LGT RAIN  81  64  56 S16       29.94F

$$
AND FOR LAKE MICHIGAN COASTAL AND OPEN LAKE BUOY OBSERVATIONS

STATION/POSITION TEMP    WIND        PRES    VSBY  WAVE
                 AIR SEA DIR/SP/G                  HT/PER
                 (F)     (DEG/KT/KT) (MB)    (MI)  (FT/S)
CALUMET HARBOR    47     340/ 17/ 28   N/A
MICHIGAN CITY     47     360/ 15/ 17   N/A
BURNS HARBOR      47     360/ 14/ 16 1017.3S
SAINT JOSEPH      51     360/ 11/ 17 1016.3S
SOUTH LAKE BUOY   41 38  360/ 21/ 27 1018.0R         7/ 7
4 MI NW BRIDGMAN  51 57   30/ 17/ 21   N/A           4/ 3
MICHIGAN CITY     47 56   20/ 14/ 17   N/A           5/ 5

$$
&&


USA.gov is the U.S. government's official web portal to all federal, state and local government web resources and services.